Location: Guadanolo
(41.9167°N, 12.9333°E)
Time: 21:06:45
(UTC+00:00)

FREGAT/IRIS - Pass Details

Date: 16 September 2019
Orbit: 347 x 350 km, 97.0° (Epoch: 17 October)

Event Time Altitude Azimuth Distance (km) Brightness Sun altitude
Exits shadow 17:54:08 - 133° (SE) 1,516 5.1 -7.7°
Reaches altitude 10° 17:54:40 10° 128° (SE) 1,319 4.7 -7.8°
Maximum altitude 17:56:58 23° 72° (ENE) 804 3.7 -8.2°
Drops below altitude 10° 17:59:18 10° 16° (NNE) 1,332 5.2 -8.7°
Sets 18:01:27 0° 2° (N) 2,183 6.5 -9.1°
